• Em Portugal
  • Lista de países
  • Para 7 dias
  • Temperatura da água
  • Mapas de satélite
  • Mapa do tempo
  • Widgets de tempo
  • user-avatar
    Iniciar Sessão

    Previsão horária em Darkhan

    Hoje, 21 Junho, Quinta-feira

    Tempo Temperatura Precipitação Vento Pressão Humidade
    00:00 +18°C° 0,1 mm 1 m/s 679 mmHg 79%
    01:00 +18°C° 0 mm 1 m/s 678 mmHg 80%
    02:00 +16°C° 0,3 mm 1 m/s 678 mmHg 81%
    03:00 +16°C° 0,3 mm 1 m/s 678 mmHg 82%
    04:00 +16°C° 0,3 mm 1 m/s 678 mmHg 84%
    05:00 +18°C° 0,1 mm 1 m/s 679 mmHg 80%
    06:00 +19°C° 0,1 mm 1 m/s 679 mmHg 77%
    07:00 +20°C° 0,1 mm 1 m/s 679 mmHg 74%
    08:00 +21°C° 0 mm 2 m/s 679 mmHg 69%
    09:00 +23°C° 0 mm 2 m/s 679 mmHg 64%
    10:00 +24°C° 0 mm 2 m/s 679 mmHg 59%
    11:00 +25°C° 0,1 mm 2 m/s 679 mmHg 56%
    12:00 +26°C° 0,1 mm 2 m/s 679 mmHg 53%
    13:00 +27°C° 0,1 mm 2 m/s 679 mmHg 49%
    14:00 +26°C° 0,5 mm 2 m/s 679 mmHg 53%
    15:00 +26°C° 0,5 mm 3 m/s 679 mmHg 56%
    16:00 +25°C° 0,5 mm 3 m/s 678 mmHg 60%
    17:00 +24°C° 0,5 mm 2 m/s 678 mmHg 67%
    18:00 +23°C° 0,5 mm 2 m/s 678 mmHg 73%
    19:00 +22°C° 0,5 mm 1 m/s 678 mmHg 80%
    20:00 +21°C° 0,1 mm 1 m/s 679 mmHg 82%
    21:00 +20°C° 0,1 mm 1 m/s 679 mmHg 84%
    22:00 +19°C° 0,1 mm 1 m/s 679 mmHg 87%
    23:00 +18°C° 0 mm 1 m/s 679 mmHg 88%

    Amanhã, 22 Junho, Sexta-feira

    Tempo Temperatura Precipitação Vento Pressão Humidade
    00:00 +18°C° 0 mm 1 m/s 679 mmHg 89%
    01:00 +18°C° 0 mm 1 m/s 679 mmHg 90%
    02:00 +16°C° 0 mm 1 m/s 679 mmHg 90%
    03:00 +16°C° 0 mm 1 m/s 679 mmHg 91%
    04:00 +16°C° 0 mm 1 m/s 679 mmHg 91%
    05:00 +18°C° 0 mm 1 m/s 680 mmHg 86%
    06:00 +19°C° 0 mm 1 m/s 680 mmHg 81%
    07:00 +21°C° 0 mm 1 m/s 680 mmHg 76%
    08:00 +22°C° 0 mm 1 m/s 681 mmHg 69%
    09:00 +24°C° 0 mm 2 m/s 681 mmHg 61%
    10:00 +25°C° 0 mm 2 m/s 681 mmHg 54%
    11:00 +26°C° 0 mm 3 m/s 681 mmHg 50%
    12:00 +27°C° 0 mm 3 m/s 680 mmHg 46%
    13:00 +28°C° 0 mm 3 m/s 680 mmHg 43%
    14:00 +29°C° 0 mm 3 m/s 680 mmHg 42%
    15:00 +29°C° 0 mm 3 m/s 680 mmHg 41%
    16:00 +29°C° 0 mm 3 m/s 679 mmHg 40%
    17:00 +28°C° 0 mm 3 m/s 679 mmHg 45%
    18:00 +26°C° 0 mm 3 m/s 679 mmHg 50%
    19:00 +25°C° 0 mm 4 m/s 679 mmHg 56%
    20:00 +22°C° 0,2 mm 3 m/s 679 mmHg 62%
    21:00 +20°C° 0,2 mm 3 m/s 679 mmHg 69%
    22:00 +18°C° 0,2 mm 3 m/s 679 mmHg 76%
    23:00 +17°C° 1,1 mm 3 m/s 679 mmHg 81%

    Depois de amanhã, 23 Junho, Sábado

    Tempo Temperatura Precipitação Vento Pressão Humidade
    00:00 +17°C° 1,1 mm 2 m/s 678 mmHg 86%
    01:00 +16°C° 1,1 mm 2 m/s 678 mmHg 92%
    02:00 +16°C° 1 mm 2 m/s 678 mmHg 93%
    03:00 +16°C° 1 mm 2 m/s 678 mmHg 94%
    04:00 +15°C° 1 mm 2 m/s 678 mmHg 95%
    05:00 +15°C° 0,2 mm 2 m/s 679 mmHg 94%
    06:00 +16°C° 0,2 mm 2 m/s 679 mmHg 93%
    07:00 +16°C° 0,2 mm 2 m/s 679 mmHg 92%
    08:00 +16°C° 0,1 mm 2 m/s 679 mmHg 92%
    09:00 +16°C° 0,1 mm 2 m/s 679 mmHg 91%
    10:00 +16°C° 0,1 mm 2 m/s 680 mmHg 90%
    11:00 +16°C° 0,1 mm 3 m/s 680 mmHg 88%
    12:00 +16°C° 0,1 mm 3 m/s 680 mmHg 86%
    13:00 +16°C° 0,1 mm 3 m/s 680 mmHg 83%
    14:00 +17°C° 0 mm 3 m/s 680 mmHg 79%
    15:00 +18°C° 0 mm 3 m/s 680 mmHg 76%
    16:00 +19°C° 0 mm 3 m/s 681 mmHg 72%
    17:00 +18°C° 0,1 mm 2 m/s 681 mmHg 74%
    18:00 +18°C° 0,1 mm 2 m/s 681 mmHg 77%
    19:00 +18°C° 0,1 mm 2 m/s 681 mmHg 79%
    20:00 +16°C° 0 mm 1 m/s 680 mmHg 82%
    21:00 +15°C° 0 mm 1 m/s 680 mmHg 86%
    22:00 +13°C° 0 mm 0 m/s 680 mmHg 89%
    23:00 +12°C° 0 mm 0 m/s 680 mmHg 89%

    24 Junho, Domingo

    Tempo Temperatura Precipitação Vento Pressão Humidade
    00:00 +13°C° 0 mm 1 m/s 680 mmHg 90%
    01:00 +13°C° 0 mm 1 m/s 680 mmHg 90%
    02:00 +13°C° 0 mm 1 m/s 680 mmHg 91%
    03:00 +12°C° 0 mm 1 m/s 680 mmHg 92%
    04:00 +12°C° 0 mm 2 m/s 679 mmHg 93%
    05:00 +14°C° 0 mm 2 m/s 680 mmHg 87%
    06:00 +15°C° 0 mm 2 m/s 680 mmHg 81%
    07:00 +17°C° 0 mm 2 m/s 680 mmHg 75%
    08:00 +19°C° 0 mm 3 m/s 680 mmHg 68%
    09:00 +20°C° 0 mm 3 m/s 681 mmHg 61%
    10:00 +22°C° 0 mm 4 m/s 681 mmHg 54%
    11:00 +22°C° 0,4 mm 4 m/s 681 mmHg 55%
    12:00 +22°C° 0,4 mm 4 m/s 680 mmHg 56%
    13:00 +22°C° 0,4 mm 4 m/s 680 mmHg 57%
    14:00 +23°C° 0,7 mm 4 m/s 680 mmHg 56%
    15:00 +24°C° 0,7 mm 3 m/s 680 mmHg 55%
    16:00 +24°C° 0,7 mm 3 m/s 680 mmHg 55%
    17:00 +23°C° 0,2 mm 2 m/s 680 mmHg 58%
    18:00 +21°C° 0,2 mm 2 m/s 680 mmHg 62%
    19:00 +21°C° 0,2 mm 1 m/s 680 mmHg 66%
    20:00 +20°C° 0 mm 1 m/s 680 mmHg 68%
    21:00 +19°C° 0 mm 1 m/s 680 mmHg 71%
    22:00 +16°C° 0 mm 1 m/s 680 mmHg 74%
    23:00 +16°C° 0 mm 1 m/s 680 mmHg 76%

    25 Junho, Segunda-feira

    Tempo Temperatura Precipitação Vento Pressão Humidade
    00:00 +15°C° 0 mm 1 m/s 680 mmHg 78%
    01:00 +14°C° 0 mm 1 m/s 680 mmHg 79%
    02:00 +14°C° 0 mm 1 m/s 680 mmHg 80%
    03:00 +14°C° 0 mm 1 m/s 680 mmHg 81%
    04:00 +13°C° 0 mm 2 m/s 680 mmHg 82%
    05:00 +15°C° 0 mm 2 m/s 680 mmHg 77%
    06:00 +17°C° 0 mm 2 m/s 680 mmHg 72%
    07:00 +19°C° 0 mm 2 m/s 681 mmHg 67%
    08:00 +20°C° 0 mm 2 m/s 681 mmHg 60%
    09:00 +22°C° 0 mm 3 m/s 681 mmHg 53%
    10:00 +25°C° 0 mm 4 m/s 681 mmHg 46%
    11:00 +25°C° 0 mm 4 m/s 681 mmHg 44%
    12:00 +26°C° 0 mm 3 m/s 681 mmHg 42%
    13:00 +26°C° 0 mm 3 m/s 681 mmHg 41%
    14:00 +26°C° 0 mm 3 m/s 681 mmHg 41%
    15:00 +26°C° 0 mm 3 m/s 681 mmHg 41%
    16:00 +26°C° 0 mm 3 m/s 681 mmHg 41%
    17:00 +25°C° 0 mm 2 m/s 681 mmHg 45%
    18:00 +24°C° 0 mm 1 m/s 681 mmHg 49%
    19:00 +23°C° 0 mm 1 m/s 681 mmHg 53%
    20:00 +22°C° 0 mm 1 m/s 681 mmHg 55%
    21:00 +20°C° 0 mm 1 m/s 681 mmHg 57%
    22:00 +18°C° 0 mm 1 m/s 681 mmHg 59%
    23:00 +18°C° 0 mm 1 m/s 681 mmHg 61%

    26 Junho, Terça-feira

    Tempo Temperatura Precipitação Vento Pressão Humidade
    00:00 +16°C° 0 mm 1 m/s 680 mmHg 63%
    01:00 +16°C° 0 mm 1 m/s 680 mmHg 65%
    02:00 +16°C° 0 mm 1 m/s 680 mmHg 66%
    03:00 +16°C° 0 mm 1 m/s 681 mmHg 66%
    04:00 +15°C° 0 mm 1 m/s 681 mmHg 67%
    05:00 +18°C° 0 mm 1 m/s 681 mmHg 63%
    06:00 +20°C° 0 mm 1 m/s 681 mmHg 60%
    07:00 +21°C° 0 mm 1 m/s 682 mmHg 56%
    08:00 +22°C° 0 mm 1 m/s 682 mmHg 51%
    09:00 +24°C° 0 mm 2 m/s 682 mmHg 46%
    10:00 +25°C° 0 mm 3 m/s 682 mmHg 42%
    11:00 +26°C° 0 mm 3 m/s 682 mmHg 40%
    12:00 +26°C° 0 mm 3 m/s 682 mmHg 38%
    13:00 +27°C° 0 mm 3 m/s 682 mmHg 36%
    14:00 +27°C° 0 mm 3 m/s 682 mmHg 36%
    15:00 +27°C° 0 mm 3 m/s 682 mmHg 35%
    16:00 +28°C° 0 mm 3 m/s 681 mmHg 34%
    17:00 +26°C° 0 mm 2 m/s 681 mmHg 39%
    18:00 +25°C° 0 mm 2 m/s 681 mmHg 44%
    19:00 +24°C° 0 mm 1 m/s 681 mmHg 49%
    20:00 +22°C° 0 mm 1 m/s 681 mmHg 52%
    21:00 +20°C° 0 mm 1 m/s 681 mmHg 55%
    22:00 +19°C° 0 mm 1 m/s 680 mmHg 58%
    23:00 +18°C° 0 mm 1 m/s 680 mmHg 60%
    Mostrar mais